Location: Coleto Creek Park and Reservoir
(28.7196°N, 97.1740°W)
Time: 19:11:46
(UTC-05:00)

Hubble Space Telescope - Visible Passes

Search period start: 04 May 2015 00:00
Search period end: 14 May 2015 00:00
Orbit: 542 x 546 km, 28.5° (Epoch: 04 May)

Date Brightness Start Highest point End Pass type
(mag) Time Alt. Az. Time Alt. Az. Time Alt. Az.
04 May 0.8 20:38:32 10° WSW 20:42:41 75° S 20:46:50 10° E visible
04 May 2.0 22:19:51 10° W 22:22:28 37° W 22:22:28 37° W visible
05 May 0.8 20:29:58 10° W 20:34:08 82° S 20:38:17 10° E visible
05 May 1.5 22:11:19 10° W 22:14:25 49° W 22:14:25 49° W visible
06 May 1.1 22:02:45 10° W 22:06:19 60° WSW 22:06:19 60° WSW visible
07 May 0.9 21:54:13 10° W 21:58:11 62° SSW 21:58:11 62° SSW visible
08 May 1.0 21:45:41 10° W 21:49:44 53° SSW 21:50:01 51° S visible
09 May 1.3 21:37:10 10° W 21:41:08 43° SSW 21:41:51 39° SSE visible
10 May 1.7 21:28:41 10° W 21:32:30 35° SSW 21:33:41 29° SSE visible
11 May 2.1 21:20:16 10° W 21:23:52 28° SSW 21:25:32 21° SSE visible
12 May 2.5 21:11:56 10° WSW 21:15:13 22° SSW 21:17:25 15° SSE visible
13 May 2.8 21:03:45 10° WSW 21:06:33 17° SSW 21:09:17 10° SSE visible
